Wind_Speed
43 44 46 48 50 51 52 53 54 55 56 58 59 60 61 62 63 64 64 65 66 66 67 67 67 68 68 68 69 69 69 70 68 65 66 66 67 67 67 68 67 66 66
47 49 51 52 54 55 56 57 58 59 59 60 61 62 63 64 64 64 65 65 66 66 67 67 66 67 67 67 68 68 69 69 69 67 67 67 66 67 68 67 68 68 67
53 54 56 57 58 59 60 61 62 63 63 64 64 65 65 65 65 65 66 66 66 66 67 67 67 67 66 66 67 68 68 69 69 68 67 67 66 66 67 68 69 69 68
58 59 61 62 63 63 64 65 65 66 67 67 67 67 67 67 67 67 67 67 67 67 67 67 67 67 67 67 67 67 67 67 67 66 65 65 65 66 68 68 68 69 69
63 64 66 67 67 68 68 68 69 69 69 68 68 67 67 67 67 67 67 67 66 66 66 66 66 66 66 66 66 65 65 65 65 65 64 64 64 65 66 67 68 68 68
68 69 70 71 71 71 71 71 71 70 70 69 68 68 67 67 67 67 66 64 64 64 64 64 64 64 64 64 64 64 63 63 63 63 63 63 63 65 66 66 67 67 66
72 73 74 75 74 74 73 73 72 71 70 69 68 68 67 66 66 65 63 62 61 61 60 60 60 60 61 62 62 62 62 62 62 62 62 62 63 63 64 65 65 65 64
76 77 77 77 76 75 74 73 72 71 69 69 68 67 66 64 63 62 61 60 60 59 58 58 58 58 59 60 60 60 60 60 60 61 60 60 60 61 62 63 64 64 63
79 79 78 78 77 75 73 72 70 69 68 67 66 65 63 61 61 60 59 58 57 56 56 57 57 57 57 58 57 56 56 57 58 59 59 58 58 59 60 61 61 62 61
80 79 79 77 76 74 72 70 69 67 65 64 62 61 60 59 58 57 57 56 55 55 55 55 55 55 55 55 55 54 54 55 56 57 56 56 56 57 58 59 60 60 60
80 78 76 75 73 71 69 67 65 63 61 60 58 57 56 56 55 55 54 54 54 53 53 53 52 53 52 52 52 53 53 54 55 55 54 55 55 56 56 57 58 58 58
78 75 72 70 68 66 64 62 60 59 57 56 54 53 53 52 52 52 52 52 52 51 50 49 49 50 50 51 51 52 52 53 53 53 52 52 52 53 53 54 55 55 55
73 70 67 65 63 61 60 58 56 54 53 52 51 50 49 49 49 49 49 49 49 48 47 47 47 48 49 49 50 50 50 51 51 50 49 49 50 51 51 51 51 52 51
68 65 62 60 58 56 55 54 52 51 50 49 48 47 46 45 46 46 46 46 45 45 45 45 45 46 47 47 47 47 48 48 48 48 47 47 48 48 47 48 48 49 48
62 60 57 56 54 53 51 50 48 47 48 46 45 44 43 42 42 43 42 41 40 41 42 42 43 44 44 45 45 45 46 46 46 46 45 45 44 44 44 45 45 46 45
58 55 53 52 50 48 46 45 45 45 44 43 42 41 39 39 39 38 38 37 37 38 38 39 40 40 41 42 43 43 43 42 42 42 42 42 42 42 42 43 44 44 43
54 52 50 48 46 45 44 42 40 39 40 39 39 38 38 38 37 36 36 35 35 36 37 37 37 38 39 40 40 40 39 39 40 40 40 40 40 39 40 40 40 41 40
51 49 48 45 43 42 41 39 38 37 35 35 36 37 36 36 35 35 35 35 35 35 36 36 36 37 37 38 37 37 37 37 38 38 37 37 37 37 36 36 37 37 37
48 47 45 42 41 40 38 37 37 36 35 33 32 34 35 34 34 34 34 34 34 34 34 35 35 35 35 35 35 35 35 35 35 34 34 34 34 33 33 34 34 35 35
45 44 43 40 39 38 37 36 35 34 33 32 32 32 32 32 32 32 33 32 32 32 32 32 32 32 32 33 32 32 32 32 31 31 30 30 31 31 31 32 32 33 34
43 42 41 39 38 36 35 35 34 33 32 31 32 32 32 32 32 31 31 30 30 30 31 30 31 30 30 30 29 29 29 28 28 28 28 29 29 30 30 31 32 33 33
42 41 38 37 35 34 34 33 33 32 31 31 31 31 31 32 31 30 29 29 29 30 30 29 29 29 28 28 27 27 26 26 26 26 27 28 28 29 29 30 31 32 31
41 39 36 34 33 33 32 32 32 31 31 31 31 30 30 31 30 29 28 28 29 28 28 28 27 26 26 26 25 25 25 25 25 26 26 27 28 28 28 29 29 27 26
39 37 34 33 32 32 31 31 30 30 31 30 29 29 30 29 28 27 27 27 26 26 26 25 25 25 24 24 24 24 25 24 24 25 25 26 26 26 26 25 24 23 23
37 34 33 32 31 30 30 30 30 30 29 28 28 29 28 27 26 25 25 24 24 24 24 23 23 23 23 23 24 24 24 23 23 24 24 24 23 23 22 22 22 22 22
34 33 32 30 30 29 29 29 29 28 28 27 27 27 26 24 23 23 22 23 23 22 22 22 22 22 23 23 23 23 22 23 23 23 23 22 21 21 21 21 22 22 22
Wind_Direction
302 301 300 299 298 297 296 294 293 292 291 290 289 287 286 284 283 282 281 281 280 280 280 280 280 280 280 280 280 281 281 282 282 282 282 281 280 279 279 279 279 279 279
302 301 300 299 298 297 296 295 293 292 291 290 289 288 287 285 284 283 282 281 281 281 281 281 281 280 280 280 281 281 281 281 282 282 281 281 280 279 279 278 278 279 279
302 301 300 299 298 297 296 295 294 293 291 290 289 288 287 285 284 283 282 282 281 281 281 281 280 280 280 281 281 281 281 282 282 282 281 280 280 279 278 278 278 279 278
301 300 300 299 298 297 296 295 294 292 291 290 289 288 287 285 284 283 282 282 281 281 281 281 281 280 280 280 281 281 281 281 281 282 281 280 279 279 278 278 277 277 278
301 301 300 300 299 298 297 296 294 293 292 290 289 288 287 285 284 283 282 282 281 281 281 281 281 280 280 280 281 281 281 281 281 282 281 281 280 279 278 277 277 277 278
301 301 300 300 299 298 297 296 294 293 292 291 290 288 287 285 284 283 283 282 282 282 282 281 281 281 280 280 280 280 280 281 282 282 282 282 281 279 278 278 277 277 278
301 301 301 300 299 299 297 296 295 293 292 291 289 288 287 285 285 284 284 284 283 283 282 282 281 281 281 281 280 281 281 282 282 282 282 282 281 279 278 278 278 278 278
302 302 302 301 300 299 298 296 294 293 292 290 289 288 287 286 286 285 285 285 285 284 283 282 282 281 281 281 281 281 282 282 283 283 282 282 280 279 279 278 278 279 279
303 303 302 301 300 299 297 295 294 292 291 290 290 289 288 288 287 286 286 286 285 285 283 283 282 281 281 281 281 281 282 282 283 284 283 283 281 280 279 279 279 279 279
304 303 303 301 300 299 297 296 294 293 292 291 291 290 289 288 288 287 287 286 285 284 284 284 283 282 281 282 282 282 283 283 283 284 283 282 281 281 280 281 281 281 281
305 304 304 302 301 300 298 297 295 294 293 293 292 291 290 289 288 288 287 287 286 285 285 284 283 283 283 283 283 284 285 285 285 284 283 283 282 281 281 282 282 283 283
305 305 304 303 301 300 299 297 296 295 294 294 293 292 291 291 290 289 288 288 287 286 285 284 284 284 284 285 285 286 286 286 286 285 284 283 283 282 282 283 283 284 285
306 306 305 303 302 301 300 299 298 296 296 295 295 294 293 292 292 291 290 289 288 287 286 285 285 285 285 286 287 287 287 287 287 286 285 284 284 284 284 284 284 285 286
307 307 306 305 303 302 300 300 299 298 297 296 296 296 295 294 292 292 291 291 289 288 288 287 287 287 287 288 288 288 288 288 287 287 286 286 286 286 286 285 285 286 287
309 308 307 306 304 303 302 301 300 299 299 298 298 298 297 296 295 294 294 293 291 290 290 290 289 289 289 289 290 290 290 289 289 289 289 288 287 287 286 286 287 287 288
310 309 308 307 306 305 303 302 302 301 301 300 300 301 301 301 299 298 297 296 294 293 292 292 292 292 292 292 292 292 292 291 291 291 290 289 289 288 288 288 289 290 290
311 310 310 309 308 306 305 304 303 302 302 302 302 302 304 304 303 301 300 299 298 297 297 296 295 295 295 295 294 294 293 293 293 293 292 291 291 291 290 291 291 291 291
311 311 311 310 309 309 308 307 306 305 304 303 303 304 305 306 305 303 302 301 301 301 300 299 298 298 298 298 296 295 295 296 296 295 294 294 294 294 293 292 292 293 293
312 312 312 310 310 310 310 309 308 308 307 306 305 305 306 307 306 305 304 304 304 304 303 303 302 301 300 300 299 297 297 299 299 298 298 298 297 296 295 295 295 295 296
313 313 312 311 311 311 310 309 309 310 309 308 307 307 308 308 307 307 306 306 307 307 308 307 306 305 305 305 303 301 301 301 301 302 302 302 301 300 299 298 298 298 299
313 313 312 311 311 311 310 310 310 310 311 310 310 310 310 310 310 309 308 308 309 310 311 310 310 309 309 309 307 306 306 305 304 304 305 305 305 304 303 302 302 302 302
313 313 312 310 310 310 310 310 311 311 312 312 312 312 312 313 313 312 311 311 312 312 313 314 314 313 312 311 311 311 310 309 308 308 309 309 309 308 306 306 305 305 304
313 313 312 310 310 311 311 311 312 312 313 313 313 313 314 314 315 314 313 314 314 315 317 317 318 317 317 316 316 316 316 315 314 313 312 312 312 312 311 310 309 309 308
313 313 311 309 309 310 311 312 313 313 314 314 314 314 315 316 316 316 317 318 319 319 320 320 321 321 322 322 321 320 319 319 318 317 317 317 317 317 317 316 315 314 313
312 312 310 309 309 310 311 312 313 314 314 315 315 316 316 317 317 319 320 322 323 323 324 325 326 326 326 326 326 326 325 324 323 323 322 322 322 322 323 322 321 319 316
311 312 311 309 309 310 312 312 313 315 315 316 317 319 319 320 322 323 324 325 326 328 329 330 331 332 332 331 331 331 330 329 329 328 328 327 328 328 328 328 326 324 321
Height
5699 5693 5688 5682 5677 5671 5665 5660 5654 5648 5642 5636 5630 5624 5619 5613 5608 5603 5599 5594 5590 5586 5581 5577 5573 5568 5563 5559 5554 5550 5546 5541 5539 5542 5536 5532 5527 5523 5518 5515 5513 5511 5509
5687 5681 5675 5669 5663 5657 5651 5644 5638 5632 5626 5619 5613 5607 5601 5595 5590 5584 5580 5575 5570 5566 5562 5557 5554 5548 5544 5540 5535 5531 5527 5522 5519 5519 5517 5512 5507 5503 5499 5495 5493 5490 5488
5674 5668 5661 5655 5648 5642 5635 5628 5621 5615 5608 5601 5595 5589 5583 5577 5571 5565 5561 5556 5551 5547 5542 5537 5534 5528 5525 5520 5515 5511 5507 5503 5499 5497 5496 5491 5487 5483 5478 5476 5472 5470 5467
5660 5653 5646 5639 5632 5625 5618 5611 5604 5596 5590 5583 5576 5569 5563 5557 5551 5546 5541 5536 5532 5528 5523 5518 5514 5509 5505 5500 5496 5492 5488 5483 5479 5476 5474 5471 5467 5462 5458 5455 5452 5449 5446
5644 5637 5630 5622 5614 5607 5599 5592 5584 5577 5569 5563 5556 5549 5543 5537 5531 5525 5521 5516 5512 5508 5503 5498 5494 5489 5485 5480 5476 5473 5468 5464 5460 5456 5453 5450 5447 5441 5437 5433 5431 5428 5426
5627 5619 5611 5604 5596 5587 5579 5572 5564 5556 5549 5542 5535 5528 5522 5516 5510 5504 5500 5496 5492 5488 5483 5478 5474 5469 5465 5461 5457 5453 5449 5445 5441 5436 5433 5430 5427 5421 5416 5412 5410 5407 5407
5608 5600 5592 5583 5575 5567 5559 5550 5542 5535 5528 5521 5513 5507 5501 5495 5488 5484 5479 5476 5473 5468 5464 5459 5455 5450 5445 5441 5437 5433 5430 5425 5422 5418 5414 5411 5406 5401 5396 5392 5389 5387 5386
5589 5580 5570 5562 5554 5546 5537 5529 5521 5513 5506 5499 5493 5486 5480 5475 5468 5464 5460 5456 5453 5449 5445 5440 5436 5432 5427 5422 5419 5416 5411 5407 5401 5397 5395 5392 5387 5381 5377 5373 5369 5367 5366
5568 5559 5549 5540 5532 5524 5515 5507 5499 5492 5485 5478 5472 5466 5460 5455 5449 5445 5441 5438 5435 5430 5426 5422 5418 5414 5409 5404 5401 5398 5394 5389 5383 5379 5375 5372 5368 5363 5358 5354 5350 5347 5346
5548 5538 5528 5518 5509 5501 5493 5485 5478 5471 5465 5459 5453 5446 5441 5436 5431 5426 5422 5420 5417 5413 5408 5404 5399 5395 5391 5386 5383 5380 5377 5372 5366 5362 5358 5354 5349 5345 5340 5336 5332 5328 5325
5527 5517 5508 5497 5488 5479 5472 5464 5457 5451 5445 5440 5434 5429 5423 5417 5413 5409 5405 5401 5398 5395 5391 5387 5382 5378 5374 5370 5366 5363 5359 5354 5350 5345 5341 5337 5332 5328 5323 5318 5314 5310 5307
5507 5498 5488 5478 5468 5459 5452 5445 5438 5432 5427 5422 5416 5412 5406 5401 5396 5392 5388 5384 5380 5378 5374 5370 5366 5362 5358 5354 5350 5346 5342 5337 5333 5329 5325 5320 5316 5311 5307 5302 5297 5293 5289
5488 5478 5469 5460 5451 5442 5434 5428 5422 5415 5410 5405 5400 5396 5392 5386 5381 5376 5372 5368 5364 5361 5358 5355 5351 5347 5343 5339 5334 5330 5325 5321 5316 5313 5309 5305 5300 5296 5291 5286 5281 5277 5273
5470 5461 5452 5443 5436 5428 5419 5412 5406 5401 5395 5390 5386 5381 5377 5372 5367 5362 5358 5353 5349 5346 5343 5340 5336 5332 5327 5323 5319 5315 5310 5305 5301 5297 5293 5289 5284 5280 5276 5271 5267 5262 5259
5453 5445 5436 5428 5420 5413 5406 5399 5393 5388 5381 5376 5372 5367 5363 5359 5354 5349 5344 5341 5336 5333 5329 5326 5322 5318 5313 5309 5305 5300 5296 5291 5287 5282 5278 5274 5270 5266 5261 5257 5253 5249 5245
5438 5430 5422 5414 5407 5400 5393 5388 5382 5375 5370 5364 5359 5354 5350 5346 5342 5337 5333 5328 5324 5321 5317 5314 5309 5305 5300 5296 5292 5287 5282 5278 5273 5269 5265 5261 5257 5252 5248 5244 5239 5235 5231
5423 5416 5409 5402 5394 5388 5381 5376 5372 5367 5360 5354 5349 5344 5340 5335 5331 5326 5322 5318 5314 5309 5306 5302 5298 5293 5289 5284 5279 5275 5270 5266 5261 5257 5252 5248 5244 5240 5236 5231 5226 5222 5218
5411 5404 5397 5390 5383 5377 5371 5365 5360 5356 5352 5347 5341 5335 5330 5326 5321 5317 5312 5308 5304 5299 5295 5291 5287 5282 5278 5273 5268 5263 5259 5255 5250 5245 5241 5237 5232 5228 5224 5219 5215 5210 5206
5400 5393 5386 5380 5374 5368 5362 5357 5352 5347 5342 5337 5333 5328 5322 5318 5313 5308 5303 5299 5294 5290 5285 5281 5276 5271 5267 5262 5257 5253 5249 5244 5240 5235 5231 5226 5222 5217 5213 5209 5204 5200 5195
5390 5383 5376 5371 5365 5359 5354 5349 5344 5339 5334 5329 5324 5320 5315 5310 5305 5300 5295 5290 5286 5281 5277 5272 5267 5262 5257 5253 5248 5243 5239 5235 5230 5226 5221 5217 5212 5208 5203 5199 5194 5190 5185
5381 5374 5368 5362 5356 5351 5346 5341 5336 5331 5326 5321 5317 5312 5307 5302 5297 5292 5288 5283 5278 5274 5269 5264 5259 5254 5249 5244 5240 5235 5231 5226 5222 5218 5213 5209 5204 5199 5195 5190 5185 5180 5175
5371 5365 5359 5354 5349 5344 5338 5333 5328 5324 5319 5314 5310 5305 5300 5295 5290 5285 5280 5276 5271 5266 5261 5257 5252 5247 5242 5237 5233 5228 5224 5219 5215 5211 5206 5201 5196 5191 5187 5182 5176 5171 5166
5362 5356 5351 5346 5341 5336 5331 5326 5321 5317 5312 5307 5303 5298 5293 5288 5283 5278 5273 5269 5264 5260 5255 5250 5245 5240 5236 5231 5227 5222 5218 5213 5209 5204 5199 5194 5189 5184 5179 5174 5168 5163 5158
5354 5348 5343 5339 5334 5329 5324 5320 5315 5310 5306 5301 5296 5291 5286 5281 5276 5272 5267 5263 5258 5254 5249 5244 5240 5235 5231 5226 5222 5217 5212 5207 5203 5198 5193 5188 5183 5178 5173 5167 5162 5157 5152
5345 5340 5335 5331 5327 5322 5318 5313 5309 5304 5299 5294 5290 5285 5280 5275 5270 5266 5262 5258 5253 5249 5244 5240 5235 5231 5226 5222 5217 5212 5207 5202 5198 5193 5188 5183 5178 5173 5168 5163 5158 5153 5148
5337 5332 5328 5324 5320 5315 5311 5307 5302 5298 5293 5288 5284 5279 5274 5270 5265 5261 5257 5253 5249 5245 5241 5236 5232 5227 5223 5218 5213 5208 5203 5198 5193 5188 5183 5178 5173 5168 5164 5159 5153 5148 5143